Location: Misciano
(43.5000°N, 11.9500°E)
Time: 07:45:41
(UTC+00:00)

ATLAS 3B R/B - Pass Details

Date: 13 August 2020
Orbit: 1016 x 1179 km, 63.8° (Epoch: 22 September)

Event Time Altitude Azimuth Distance (km) Brightness Sun altitude
Exits shadow 20:14:41 31° 129° (SE) 1,712 3.2 -18.8°
Maximum altitude 20:15:39 32° 113° (ESE) 1,669 3.2 -18.9°
Drops below altitude 10° 20:21:21 10° 53° (NE) 2,818 4.8 -19.6°
Sets 20:24:15 0° 44° (NE) 3,786 5.6 -20.0°
